PE1BMM-13 Weather Reports


time (UTC)temp
C
wind
direction
speed
KPH
gust
KPH
rain 1hr
cm
rain 24hr
cm
rain mn
cm
humidity
%
barometer
mb
20260506080928 13 98 4.8 14.5 0.00 0.00 0.00 76 1009.9
20260506080854 13 111 4.8 14.5 0.00 0.00 0.00 76 1009.9
20260506080822 12 85 4.8 16.1 0.00 0.00 0.00 76 1009.8
20260506080602 13 33 4.8 16.1 0.00 0.00 0.00 77 1009.8
20260506080113 12 27 6.4 16.1 0.00 0.00 0.00 76 1009.8
20260506073408 13 144 4.8 14.5 0.00 0.00 0.00 78 1009.8
20260506072907 12 93 6.4 16.1 0.00 0.00 0.00 79 1009.8
20260506072855 12 103 6.4 16.1 0.00 0.00 0.00 79 1009.8
20260506072402 12 117 4.8 16.1 0.00 0.00 0.00 80 1009.7
20260506071906 12 170 4.8 16.1 0.00 0.00 0.00 81 1009.8
20260506071853 12 16 4.8 16.1 0.00 0.00 0.00 81 1009.8
20260506071403 12 154 4.8 14.5 0.00 0.00 0.00 81 1009.8
20260506070903 11 63 4.8 14.5 0.00 0.00 0.00 82 1009.8
20260506070855 11 81 4.8 14.5 0.00 0.00 0.00 82 1009.8
20260506070825 11 97 3.2 8.0 0.00 0.00 0.00 82 1009.7
20260506070555 11 132 4.8 12.9 0.00 0.00 0.00 82 1009.7
20260506070109 11 98 3.2 8.0 0.00 0.00 0.00 82 1009.7
20260506062400 11 108 3.2 12.9 0.00 0.00 0.00 85 1009.6
20260506061901 11 85 3.2 14.5 0.00 0.00 0.00 85 1009.6
20260506061856 11 100 3.2 14.5 0.00 0.00 0.00 85 1009.6
20260506061401 11 93 4.8 14.5 0.00 0.00 0.00 85 1009.5
20260506060900 11 77 4.8 14.5 0.00 0.00 0.00 85 1009.4
20260506060855 11 41 4.8 14.5 0.00 0.00 0.00 85 1009.5
20260506060401 11 127 4.8 14.5 0.00 0.00 0.00 85 1009.4
20260506051356 10 2 3.2 11.3 0.00 0.00 0.00 85 1009.3
20260506050900 10 75 1.6 11.3 0.00 0.00 0.00 85 1009.3
20260506050852 10 75 1.6 11.3 0.00 0.00 0.00 85 1009.4
20260506050354 10 343 1.6 6.4 0.00 0.00 0.00 85 1009.4
20260506044850 10 349 3.2 11.3 0.00 0.00 0.00 85 1009.5
20260506044354 10 18 3.2 11.3 0.00 0.00 0.00 84 1009.6
20260506043859 10 52 3.2 9.7 0.00 0.00 0.00 84 1009.5
20260506043854 10 52 3.2 9.7 0.00 0.00 0.00 84 1009.6
20260506043354 10 159 3.2 12.9 0.00 0.00 0.00 84 1009.6
20260506042855 10 98 3.2 12.9 0.00 0.00 0.00 84 1009.5
20260506042849 10 359 3.2 12.9 0.00 0.00 0.00 84 1009.5
20260506042355 10 112 3.2 9.7 0.00 0.00 0.00 84 1009.6
20260506041857 10 14 3.2 9.7 0.00 0.00 0.00 84 1009.4
20260506041851 10 35 3.2 9.7 0.00 0.00 0.00 84 1009.5
20260506041354 10 66 3.2 9.7 0.00 0.00 0.00 84 1009.5
20260506040856 10 356 3.2 9.7 0.00 0.00 0.00 85 1009.5
20260506040851 10 4 3.2 9.7 0.00 0.00 0.00 85 1009.5
20260506040355 10 12 3.2 9.7 0.00 0.00 0.00 85 1009.5
20260506035855 10 68 3.2 9.7 0.00 0.00 0.00 85 1009.6
20260506035849 10 71 3.2 9.7 0.00 0.00 0.00 85 1009.5
20260506035356 10 23 3.2 9.7 0.00 0.00 0.00 85 1009.5
20260506034850 10 359 3.2 9.7 0.00 0.00 0.00 85 1009.5
20260506034342 10 112 3.2 8.0 0.00 0.00 0.00 85 1009.6
20260506033848 10 187 3.2 8.0 0.00 0.00 0.00 85 1009.5
20260506033837 10 80 3.2 8.0 0.00 0.00 0.00 85 1009.5
20260506033334 10 21 3.2 12.9 0.00 0.00 0.00 85 1009.6
20260506032844 10 127 4.8 12.9 0.00 0.00 0.00 85 1009.6
20260506032825 10 112 4.8 12.9 0.00 0.00 0.00 85 1009.6
20260506032319 10 133 4.8 14.5 0.00 0.00 0.00 86 1009.7
20260506031845 10 54 4.8 14.5 0.00 0.00 0.00 86 1009.7
20260506031813 10 9 4.8 14.5 0.00 0.00 0.00 86 1009.7
20260506031307 10 52 3.2 12.9 0.00 0.00 0.00 86 1009.8
20260506030844 10 338 3.2 11.3 0.00 0.00 0.00 86 1009.8
20260506030801 10 14 3.2 11.3 0.00 0.00 0.00 86 1009.8
20260506030255 10 143 1.6 8.0 0.00 0.00 0.00 86 1009.8
20260506025843 10 4 1.6 11.3 0.00 0.00 0.00 86 1009.9
20260506025749 10 0 1.6 11.3 0.00 0.00 0.00 86 1009.9
20260506025243 10 137 3.2 11.3 0.00 0.00 0.00 86 1009.8
20260506024844 10 127 3.2 9.7 0.00 0.00 0.00 86 1009.9
20260506024737 10 127 3.2 9.7 0.00 0.00 0.00 86 1009.9
20260506024231 10 33 3.2 12.9 0.00 0.00 0.00 86 1009.8
20260506023844 10 61 4.8 12.9 0.00 0.00 0.00 86 1009.9
20260506023725 10 314 4.8 12.9 0.00 0.00 0.00 86 1009.9
20260506023219 10 104 3.2 14.5 0.00 0.00 0.00 86 1009.9
20260506022843 10 98 3.2 14.5 0.00 0.00 0.00 86 1010.0
20260506022713 10 68 3.2 14.5 0.00 0.00 0.00 86 1010.0
20260506022209 10 21 3.2 12.9 0.00 0.00 0.00 85 1010.0
20260506021844 10 117 1.6 12.9 0.00 0.00 0.00 85 1009.8
20260506021701 10 63 1.6 12.9 0.00 0.00 0.00 84 1009.9
20260506021155 10 18 1.6 11.3 0.00 0.00 0.00 84 1010.0
20260506020839 10 26 1.6 8.0 0.00 0.00 0.00 84 1010.1
20260506020649 10 25 1.6 8.0 0.00 0.00 0.00 84 1010.1
20260506020143 10 68 1.6 9.7 0.00 0.00 0.00 84 1010.1
20260506015837 10 24 3.2 9.7 0.00 0.00 0.00 84 1010.1
20260506015637 10 1 1.6 9.7 0.00 0.00 0.00 84 1010.1
20260506015131 10 49 1.6 9.7 0.00 0.00 0.00 84 1010.2
20260506014838 10 4 1.6 6.4 0.00 0.00 0.00 85 1010.1
20260506014628 10 79 1.6 6.4 0.00 0.00 0.00 85 1010.2
20260506014127 10 32 1.6 6.4 0.00 0.00 0.00 85 1010.2
20260506013841 10 106 1.6 6.4 0.00 0.00 0.00 85 1010.2
20260506013627 10 76 1.6 6.4 0.00 0.00 0.00 85 1010.3
20260506013125 9 35 1.6 6.4 0.00 0.00 0.00 85 1010.2
20260506012837 9 349 1.6 4.8 0.00 0.00 0.00 85 1010.3
20260506012625 9 30 1.6 6.4 0.00 0.00 0.00 86 1010.3
20260506012125 9 42 1.6 6.4 0.00 0.00 0.00 86 1010.4
20260506011837 9 42 1.6 6.4 0.00 0.00 0.00 86 1010.3
20260506011623 9 21 1.6 6.4 0.00 0.00 0.00 86 1010.3
20260506011121 9 81 1.6 6.4 0.00 0.00 0.00 86 1010.4
20260506010839 9 189 1.6 6.4 0.00 0.00 0.00 86 1010.3
20260506010622 9 91 1.6 6.4 0.00 0.00 0.00 86 1010.4
20260506010122 9 3 1.6 8.0 0.00 0.00 0.00 86 1010.3
20260506005838 9 100 1.6 8.0 0.00 0.00 0.00 86 1010.3
20260506005622 9 191 1.6 8.0 0.00 0.00 0.00 86 1010.3
20260506005231 9 59 3.2 9.7 0.00 0.00 0.00 86 1010.7
20260506005120 9 117 1.6 6.4 0.00 0.00 0.00 86 1010.4
20260506005009 9 66 1.6 6.4 0.00 0.00 0.00 86 1010.4
20260506004622 9 107 1.6 9.7 0.00 0.00 0.00 86 1010.5
20260506004120 9 102 3.2 9.7 0.00 0.00 0.00 86 1010.5
20260506003618 9 88 3.2 9.7 0.00 0.00 0.00 86 1010.6
20260506003118 9 79 1.6 9.7 0.00 0.00 0.00 86 1010.7
20260506002832 8 165 1.6 6.4 0.00 0.00 0.00 86 1010.7
20260506002620 8 46 1.6 6.4 0.00 0.00 0.00 86 1010.7
20260506002118 8 139 1.6 6.4 0.00 0.00 0.00 86 1010.7
20260506001833 8 51 1.6 8.0 0.00 0.00 0.00 86 1010.8
20260506001613 8 52 1.6 8.0 0.00 0.00 0.00 86 1010.7
20260506001107 8 48 1.6 8.0 0.00 0.00 0.00 86 1010.8
20260506000829 8 45 1.6 6.4 0.00 0.00 0.00 86 1010.7
20260506000601 8 21 1.6 6.4 0.00 0.00 0.00 86 1010.9
20260506000101 8 53 1.6 4.8 0.00 0.00 0.00 86 1010.9
20260505235833 8 317 1.6 6.4 0.00 0.00 0.00 86 1011.0
20260505235601 8 55 1.6 6.4 0.00 0.00 0.00 86 1011.0
20260505235101 8 19 1.6 6.4 0.00 0.00 0.00 86 1011.1
20260505234829 8 66 1.6 6.4 0.00 0.00 0.00 86 1011.1
20260505234558 8 48 1.6 6.4 0.00 0.00 0.00 86 1011.1
20260505234309 8 15 1.6 6.4 0.00 0.00 0.00 86 1011.3
20260505234118 8 25 1.6 6.4 0.00 0.00 0.00 86 1011.2
20260505233559 8 16 3.2 6.4 0.00 0.00 0.00 86 1011.2
20260505233059 8 358 3.2 6.4 0.00 0.00 0.00 86 1011.2
20260505232829 8 358 1.6 6.4 0.00 0.00 0.00 85 1011.3
20260505232558 8 66 1.6 4.8 0.00 0.00 0.00 85 1011.3
20260505232057 8 12 1.6 4.8 0.00 0.00 0.00 85 1011.3
20260505231827 8 10 1.6 4.8 0.00 0.00 0.00 85 1011.3
20260505231559 9 30 1.6 4.8 0.00 0.00 0.00 85 1011.3
20260505231058 9 34 1.6 4.8 0.00 0.00 0.00 85 1011.3
20260505230827 9 39 1.6 4.8 0.00 0.00 0.00 84 1011.3
20260505230559 9 78 1.6 8.0 0.00 0.00 0.00 84 1011.3
20260505230058 9 81 3.2 11.3 0.00 0.00 0.00 84 1011.3
20260505225827 9 103 3.2 11.3 0.00 0.00 0.00 84 1011.2
20260505225558 9 44 1.6 11.3 0.00 0.00 0.00 84 1011.2
20260505225058 9 341 1.6 6.4 0.00 0.00 0.00 84 1011.3
20260505224831 9 70 1.6 6.4 0.00 0.00 0.00 84 1011.4
20260505224558 9 70 1.6 8.0 0.00 0.00 0.00 83 1011.3
20260505224101 9 81 1.6 8.0 0.00 0.00 0.00 83 1011.4
20260505223827 9 82 1.6 8.0 0.00 0.00 0.00 83 1011.3
20260505223558 9 68 1.6 8.0 0.00 0.00 0.00 82 1011.4
20260505223058 10 117 1.6 8.0 0.00 0.00 0.00 82 1011.4
20260505222827 10 117 1.6 8.0 0.00 0.00 0.00 82 1011.5
20260505222558 10 117 1.6 8.0 0.00 0.00 0.00 82 1011.4
20260505222058 10 81 1.6 8.0 0.00 0.00 0.00 81 1011.4
20260505221833 10 127 3.2 8.0 0.00 0.00 0.00 81 1011.5
20260505221558 10 156 3.2 8.0 0.00 0.00 0.00 81 1011.5
20260505221059 10 16 3.2 8.0 0.00 0.00 0.00 81 1011.5
20260505220827 10 56 1.6 8.0 0.00 0.00 0.00 81 1011.6
20260505220558 10 78 1.6 8.0 0.00 0.00 0.00 81 1011.6
20260505220057 10 133 1.6 6.4 0.00 0.00 0.00 81 1011.6
20260505215825 10 16 3.2 9.7 0.00 0.00 0.00 80 1011.7
20260505215552 10 107 3.2 9.7 0.00 0.00 0.00 80 1011.7
20260505215053 10 26 3.2 9.7 0.00 0.00 0.00 80 1011.8
20260505214824 10 92 3.2 6.4 0.00 0.00 0.00 80 1011.7
20260505214552 10 66 3.2 6.4 0.00 0.00 0.00 80 1011.7
20260505214054 10 112 3.2 6.4 0.00 0.00 0.00 80 1011.8
20260505213825 10 22 3.2 6.4 0.00 0.00 0.00 80 1011.7
20260505213554 9 346 3.2 6.4 0.00 0.00 0.00 80 1011.8
20260505213047 10 104 1.6 6.4 0.00 0.00 0.00 80 1011.8
20260505212824 9 153 1.6 6.4 0.00 0.00 0.00 80 1011.9
20260505212547 9 117 1.6 9.7 0.00 0.00 0.00 80 1011.9
20260505212048 9 355 1.6 9.7 0.00 0.00 0.00 80 1011.8
20260505211824 9 40 1.6 9.7 0.00 0.00 0.00 80 1011.9
20260505211547 9 77 1.6 6.4 0.00 0.00 0.00 80 1011.9
20260505211047 9 82 1.6 6.4 0.00 0.00 0.00 80 1011.9
20260505210823 9 131 1.6 6.4 0.00 0.00 0.00 80 1011.8
20260505210548 9 131 1.6 6.4 0.00 0.00 0.00 80 1011.9
20260505210046 9 88 3.2 6.4 0.00 0.00 0.00 80 1011.9
20260505205825 9 96 3.2 6.4 0.00 0.00 0.00 80 1011.9
20260505205745 10 135 3.2 6.4 0.00 0.00 0.00 79 1011.9
20260505205552 9 95 3.2 6.4 0.00 0.00 0.00 79 1012.0
20260505205109 10 98 3.2 6.4 0.00 0.00 0.00 79 1011.9
20260505204544 10 135 1.6 6.4 0.00 0.00 0.00 79 1011.9
20260505204047 10 97 3.2 8.0 0.00 0.00 0.00 79 1011.9
20260505203823 10 140 3.2 8.0 0.00 0.00 0.00 79 1011.9
20260505203542 10 141 3.2 8.0 0.00 0.00 0.00 79 1012.0
20260505203044 10 122 1.6 6.4 0.00 0.00 0.00 79 1011.8
20260505202825 10 96 1.6 6.4 0.00 0.00 0.00 79 1011.8
20260505202543 10 72 1.6 6.4 0.00 0.00 0.00 79 1011.7
20260505202041 10 113 1.6 6.4 0.00 0.00 0.00 78 1011.8
20260505201827 10 29 1.6 6.4 0.00 0.00 0.00 78 1011.8
20260505201541 10 30 1.6 6.4 0.00 0.00 0.00 78 1011.8
20260505201040 10 30 3.2 9.7 0.00 0.00 0.00 78 1011.7
20260505200823 10 62 3.2 9.7 0.00 0.00 0.00 78 1011.6
20260505200541 10 60 3.2 9.7 0.00 0.00 0.00 77 1011.7
20260505200042 10 39 3.2 9.7 0.00 0.00 0.00 77 1011.6
20260505195824 10 89 3.2 9.7 0.00 0.00 0.00 77 1011.6
20260505195747 10 29 3.2 12.9 0.00 0.00 0.00 76 1011.6
20260505195552 10 127 3.2 8.0 0.00 0.00 0.00 77 1011.6
20260505195107 10 65 3.2 8.0 0.00 0.00 0.00 76 1011.4
20260505194538 10 59 3.2 12.9 0.00 0.00 0.00 76 1011.6
20260505194037 10 335 3.2 14.5 0.00 0.00 0.00 76 1011.5
20260505193824 10 135 3.2 14.5 0.00 0.00 0.00 76 1011.5
20260505193536 10 1 3.2 14.5 0.00 0.00 0.00 76 1011.4
20260505193037 10 56 3.2 9.7 0.00 0.00 0.00 76 1011.4
20260505192824 10 127 3.2 11.3 0.00 0.00 0.00 76 1011.4
20260505192538 10 60 3.2 11.3 0.00 0.00 0.00 75 1011.4
20260505192036 10 91 3.2 11.3 0.00 0.00 0.00 75 1011.4
20260505191823 10 43 3.2 11.3 0.00 0.00 0.00 75 1011.5
20260505191536 10 122 3.2 11.3 0.00 0.00 0.00 75 1011.4
20260505191037 10 87 3.2 11.3 0.00 0.00 0.00 75 1011.3
20260505190823 10 98 3.2 11.3 0.00 0.00 0.00 75 1011.4
20260505190536 10 352 3.2 12.9 0.00 0.00 0.00 75 1011.5
20260505190036 10 135 3.2 12.9 0.00 0.00 0.00 75 1011.4
20260505185825 10 83 3.2 12.9 0.00 0.00 0.00 75 1011.4
20260505185534 10 138 3.2 11.3 0.00 0.00 0.00 75 1011.4
20260505185034 10 112 3.2 11.3 0.00 0.00 0.00 75 1011.3
20260505184823 10 98 3.2 11.3 0.00 0.00 0.00 74 1011.3
20260505184534 11 78 3.2 11.3 0.00 0.00 0.00 74 1011.3
20260505184035 11 100 3.2 11.3 0.00 0.00 0.00 74 1011.2
20260505183823 11 152 4.8 11.3 0.00 0.00 0.00 74 1011.2
20260505183536 11 41 4.8 11.3 0.00 0.00 0.00 74 1011.2
20260505183029 11 117 4.8 14.5 0.00 0.00 0.00 75 1011.2
20260505182823 11 73 4.8 14.5 0.00 0.00 0.00 75 1011.3
20260505182523 11 127 3.2 14.5 0.00 0.00 0.00 75 1011.3
20260505182020 11 89 3.2 14.5 0.00 0.00 0.00 76 1011.2
20260505181824 11 52 3.2 11.3 0.00 0.00 0.00 76 1011.3
20260505181511 11 341 4.8 12.9 0.00 0.00 0.00 76 1011.2
20260505181005 11 21 4.8 16.1 0.00 0.00 0.00 75 1011.4
20260505180825 11 83 4.8 16.1 0.00 0.00 0.00 75 1011.4
20260505180459 11 77 4.8 16.1 0.00 0.00 0.00 74 1011.4
20260505180255 11 51 4.8 19.3 0.00 0.00 0.00 74 1011.4
20260505180053 11 25 4.8 19.3 0.00 0.00 0.00 74 1011.4
20260505175447 11 4 4.8 19.3 0.00 0.00 0.00 74 1011.4
20260505175259 11 186 4.8 14.5 0.00 0.00 0.00 73 1011.4
20260505175048 11 44 4.8 14.5 0.00 0.00 0.00 73 1011.4
20260505174435 11 182 4.8 17.7 0.00 0.00 0.00 73 1011.4
20260505173929 11 122 6.4 17.7 0.00 0.00 0.00 73 1011.4
20260505173823 11 127 6.4 17.7 0.00 0.00 0.00 73 1011.3
20260505173423 11 64 4.8 16.1 0.00 0.00 0.00 73 1011.3
20260505172918 12 42 4.8 14.5 0.00 0.00 0.00 74 1011.5
20260505172819 12 46 4.8 14.5 0.00 0.00 0.00 74 1011.4
20260505172411 12 302 6.4 14.5 0.00 0.00 0.00 73 1011.4
20260505171905 12 8 6.4 14.5 0.00 0.00 0.00 73 1011.3
20260505171821 12 20 6.4 14.5 0.00 0.00 0.00 73 1011.3
20260505171359 12 334 6.4 16.1 0.00 0.00 0.00 73 1011.3
20260505170854 12 117 6.4 19.3 0.00 0.00 0.00 72 1011.4
20260505170819 12 110 6.4 19.3 0.00 0.00 0.00 72 1011.4
20260505170731 12 33 6.4 16.1 0.00 0.00 0.00 71 1011.3
20260505170514 12 337 6.4 19.3 0.00 0.00 0.00 72 1011.4
20260505170036 12 74 6.4 16.1 0.00 0.00 0.00 71 1011.3
20260505165335 12 122 4.8 20.9 0.00 0.00 0.00 71 1011.3
20260505164829 12 52 4.8 20.9 0.00 0.00 0.00 72 1011.3
20260505164817 12 43 4.8 20.9 0.00 0.00 0.00 72 1011.3
20260505164323 13 107 4.8 16.1 0.00 0.00 0.00 71 1011.4
20260505164301 13 108 4.8 16.1 0.00 0.00 0.00 72 1011.4
20260505164033 13 108 4.8 16.1 0.00 0.00 0.00 72 1011.4
20260505163311 12 127 4.8 17.7 0.00 0.00 0.00 72 1011.4
20260505162815 13 72 4.8 17.7 0.00 0.00 0.00 72 1011.4
20260505162805 13 181 4.8 17.7 0.00 0.00 0.00 72 1011.4
20260505162258 13 49 6.4 19.3 0.00 0.00 0.00 71 1011.4
20260505162246 13 138 4.8 19.3 0.00 0.00 0.00 71 1011.3
20260505161753 13 161 4.8 19.3 0.00 0.00 0.00 71 1011.3
20260505161247 13 22 6.4 20.9 0.00 0.00 0.00 71 1011.2
20260505160813 13 354 6.4 20.9 0.00 0.00 0.00 71 1011.2
20260505160741 13 14 6.4 20.9 0.00 0.00 0.00 71 1011.3
20260505160236 13 68 4.8 17.7 0.00 0.00 0.00 71 1011.4
20260505153214 13 347 4.8 16.1 0.00 0.00 0.00 69 1011.3
20260505152813 13 36 4.8 19.3 0.00 0.00 0.00 69 1011.3
20260505152716 13 182 6.4 19.3 0.00 0.00 0.00 69 1011.4
20260505152212 13 132 6.4 19.3 0.00 0.00 0.00 69 1011.3
20260505151812 13 343 6.4 20.9 0.00 0.00 0.00 68 1011.4
20260505151712 13 346 6.4 20.9 0.00 0.00 0.00 68 1011.4
20260505151214 13 107 6.4 20.9 0.00 0.00 0.00 66 1011.4
20260505150812 13 112 6.4 20.9 0.00 0.00 0.00 68 1011.4
20260505150713 13 108 6.4 20.9 0.00 0.00 0.00 68 1011.3
20260505150211 13 127 8.0 22.5 0.00 0.00 0.00 68 1011.3
20260505140209 14 168 6.4 17.7 0.00 0.00 0.00 67 1011.7
20260505130210 13 92 6.4 17.7 0.00 0.00 0.00 69 1012.0
20260505124804 13 61 4.8 16.1 0.00 0.00 0.00 68 1012.0
20260505124709 13 103 6.4 16.1 0.00 0.00 0.00 68 1012.0
20260505124209 14 142 4.8 17.7 0.00 0.00 0.00 68 1012.0
20260505123805 14 11 4.8 17.7 0.00 0.00 0.00 68 1012.0
20260505123708 14 117 4.8 14.5 0.00 0.00 0.00 68 1012.1
20260505123209 14 90 4.8 14.5 0.00 0.00 0.00 69 1012.1
20260505122807 13 39 4.8 16.1 0.00 0.00 0.00 69 1012.1
20260505122705 13 15 4.8 16.1 0.00 0.00 0.00 70 1012.0
20260505122205 13 69 6.4 16.1 0.00 0.00 0.00 68 1012.1
20260505121804 13 136 6.4 16.1 0.00 0.00 0.00 69 1012.1
20260505121707 13 69 6.4 17.7 0.00 0.00 0.00 69 1012.2
20260505121203 13 98 6.4 17.7 0.00 0.00 0.00 70 1012.2
20260505120806 13 127 6.4 17.7 0.00 0.00 0.00 69 1012.2
20260505120703 13 144 6.4 17.7 0.00 0.00 0.00 69 1012.2
20260505120204 13 140 4.8 12.9 0.00 0.00 0.00 69 1012.1
20260505115806 13 43 4.8 12.9 0.00 0.00 0.00 70 1012.2
20260505115702 13 28 4.8 12.9 0.00 0.00 0.00 69 1012.2
20260505115203 13 54 4.8 16.1 0.00 0.00 0.00 69 1012.2
20260505114804 13 3 6.4 16.1 0.00 0.00 0.00 69 1012.4
20260505114702 13 127 6.4 16.1 0.00 0.00 0.00 69 1012.3
20260505114250 13 106 6.4 19.3 0.00 0.00 0.00 69 1012.4
20260505114201 13 107 6.4 19.3 0.00 0.00 0.00 69 1012.3
20260505113737 13 90 6.4 20.9 0.00 0.00 0.00 68 1012.5
20260505113702 13 131 6.4 19.3 0.00 0.00 0.00 69 1012.3
20260505113202 13 127 6.4 17.7 0.00 0.00 0.00 68 1012.4
20260505112656 13 52 6.4 20.9 0.00 0.00 0.00 68 1012.6
20260505112150 13 75 6.4 20.9 0.00 0.00 0.00 69 1012.5
20260505111803 13 61 6.4 19.3 0.00 0.00 0.00 70 1012.5
20260505111644 13 134 6.4 19.3 0.00 0.00 0.00 70 1012.6
20260505111138 13 324 6.4 16.1 0.00 0.00 0.00 69 1012.5
20260505110802 13 127 6.4 14.5 0.00 0.00 0.00 69 1012.4
20260505110632 13 138 6.4 14.5 0.00 0.00 0.00 69 1012.5
20260505110126 13 106 6.4 17.7 0.00 0.00 0.00 69 1012.5
20260505102037 13 122 6.4 17.7 0.00 0.00 0.00 69 1013.0
20260505101756 13 133 6.4 22.5 0.00 0.00 0.00 69 1012.8
20260505101716 13 55 4.8 11.3 0.00 0.00 0.00 70 1012.9
20260505101532 13 89 6.4 22.5 0.00 0.00 0.00 70 1012.8
20260505101039 13 122 4.8 22.5 0.00 0.00 0.00 69 1012.9
20260505100520 13 112 4.8 9.7 0.00 0.00 0.00 69 1012.9
20260505100014 13 61 4.8 17.7 0.00 0.00 0.00 70 1012.8
20260505095757 13 110 4.8 17.7 0.00 0.00 0.00 70 1012.8
20260505095508 13 83 4.8 17.7 0.00 0.00 0.00 69 1012.8
20260505095002 13 140 4.8 16.1 0.00 0.00 0.00 70 1012.8
20260505094758 13 142 4.8 16.1 0.00 0.00 0.00 71 1012.7
20260505094715 12 111 6.4 17.7 0.00 0.00 0.00 69 1012.5
20260505094521 13 157 6.4 17.7 0.00 0.00 0.00 71 1012.7
20260505094034 12 91 6.4 17.7 0.00 0.00 0.00 70 1012.6
20260505093444 12 127 6.4 16.1 0.00 0.00 0.00 70 1012.5
20260505092938 12 27 4.8 16.1 0.00 0.00 0.00 70 1012.4
20260505092757 13 117 4.8 16.1 0.00 0.00 0.00 70 1012.4
20260505092432 13 135 4.8 14.5 0.00 0.00 0.00 71 1012.5
20260505091926 12 117 4.8 19.3 0.00 0.00 0.00 71 1012.5
20260505091750 12 81 6.4 19.3 0.00 0.00 0.00 71 1012.5
20260505091420 12 29 6.4 22.5 0.00 0.00 0.00 72 1012.5
20260505090914 12 71 6.4 22.5 0.00 0.00 0.00 70 1012.4
20260505090751 12 102 6.4 22.5 0.00 0.00 0.00 70 1012.5
20260505090408 13 127 4.8 16.1 0.00 0.00 0.00 70 1012.6
20260505085902 12 147 4.8 19.3 0.00 0.00 0.00 72 1012.5
20260505085750 12 62 4.8 19.3 0.00 0.00 0.00 72 1012.6
20260505085356 12 117 6.4 19.3 0.00 0.00 0.00 72 1012.6
20260505084851 12 117 6.4 19.3 0.00 0.00 0.00 73 1012.7
20260505084752 12 75 6.4 19.3 0.00 0.00 0.00 72 1012.6
20260505084344 12 94 6.4 16.1 0.00 0.00 0.00 72 1012.6
20260505083840 12 135 4.8 16.1 0.00 0.00 0.00 73 1012.7
20260505083750 12 110 4.8 16.1 0.00 0.00 0.00 73 1012.7
20260505083332 12 100 4.8 16.1 0.00 0.00 0.00 73 1012.8
20260505082826 12 112 6.4 14.5 0.00 0.00 0.00 73 1012.8
20260505082750 12 127 6.4 14.5 0.00 0.00 0.00 73 1012.8
20260505082320 12 91 6.4 14.5 0.00 0.00 0.00 74 1012.8
20260505081817 12 39 4.8 14.5 0.00 0.00 0.00 74 1012.9
20260505081752 12 122 4.8 14.5 0.00 0.00 0.00 74 1012.9
20260505081307 12 117 4.8 16.1 0.00 0.00 0.00 74 1012.9